FW5695 Weather Reports


Display with metric or nautical units.
time (UTC)temp
F
wind
direction
speed
MPH
gust
MPH
rain 1hr
in
rain 24hr
in
rain mn
in
humidity
%
barometer
mb
20220626172558 89 103 2.0 6.0 0.00 0.14 0.01 67 1019.2
20220626172101 89 98 1.0 4.0 0.00 0.14 0.01 68 1019.3
20220626171611 89 299 1.0 3.0 0.00 0.14 0.01 68 1019.4
20220626171058 89 130 1.0 3.0 0.00 0.14 0.01 69 1019.5
20220626170600 88 133 2.0 3.0 0.00 0.14 0.01 71 1019.5
20220626170124 88 161 1.0 3.0 0.00 0.14 0.01 73 1019.5
20220626165602 87 94 1.0 5.0 0.00 0.14 0.01 70 1019.6
20220626165059 88 114 2.0 7.0 0.00 0.14 0.01 69 1019.6
20220626164609 88 114 3.0 7.0 0.00 0.14 0.01 71 1019.5
20220626164101 87 285 1.0 4.0 0.00 0.14 0.01 71 1019.5
20220626163600 87 259 1.0 4.0 0.00 0.14 0.01 72 1019.6
20220626163111 87 278 2.0 4.0 0.00 0.14 0.01 70 1019.6
20220626162557 88 228 2.0 9.0 0.00 0.14 0.01 71 1019.7
20220626162057 88 153 3.0 9.0 0.00 0.14 0.01 69 1019.7
20220626161617 89 126 3.0 5.0 0.00 0.14 0.01 69 1019.7
20220626161101 88 112 2.0 5.0 0.00 0.14 0.01 70 1019.7
20220626160558 87 88 2.0 4.0 0.00 0.14 0.01 71 1019.8
20220626160123 87 270 2.0 3.0 0.00 0.14 0.01 71 1019.8
20220626155557 88 100 1.0 3.0 0.00 0.14 0.01 71 1019.8
20220626155058 88 259 1.0 3.0 0.00 0.14 0.01 71 1019.9
20220626154614 88 118 1.0 5.0 0.00 0.14 0.01 72 1019.8
20220626154056 87 102 2.0 5.0 0.00 0.14 0.01 71 1019.7
20220626153559 87 135 2.0 4.0 0.00 0.14 0.01 71 1019.8
20220626153115 87 106 2.0 4.0 0.00 0.14 0.01 70 1019.7
20220626152559 87 247 2.0 5.0 0.00 0.14 0.01 70 1019.8
20220626152102 88 240 3.0 5.0 0.00 0.14 0.01 71 1019.8
20220626151615 87 249 1.0 5.0 0.00 0.14 0.01 72 1019.6
20220626151100 87 126 2.0 5.0 0.00 0.14 0.01 73 1019.7
20220626150557 86 272 2.0 5.0 0.00 0.14 0.01 72 1019.6
20220626150126 86 265 2.0 5.0 0.00 0.14 0.01 72 1019.5
20220626145558 86 271 1.0 6.0 0.00 0.14 0.01 71 1019.6
20220626145059 86 116 2.0 6.0 0.00 0.14 0.01 73 1019.5
20220626144622 85 144 2.0 5.0 0.00 0.14 0.01 74 1019.5
20220626144059 85 268 1.0 6.0 0.00 0.14 0.01 72 1019.5
20220626143559 85 100 3.0 6.0 0.00 0.14 0.01 73 1019.4
20220626143107 85 102 1.0 5.0 0.00 0.14 0.01 75 1019.4
20220626142558 84 303 2.0 5.0 0.00 0.14 0.01 75 1019.4
20220626142057 85 123 1.0 5.0 0.00 0.14 0.01 75 1019.5
20220626141617 84 255 2.0 5.0 0.00 0.14 0.01 76 1019.6
20220626141058 84 127 2.0 6.0 0.00 0.14 0.01 75 1019.5
20220626140559 83 129 3.0 6.0 0.00 0.14 0.01 76 1019.5
20220626140113 83 124 3.0 5.0 0.00 0.14 0.01 77 1019.7
20220626135555 82 103 3.0 7.0 0.00 0.14 0.01 78 1019.6
20220626135059 82 98 3.0 8.0 0.00 0.14 0.01 78 1019.6
20220626134615 82 94 3.0 8.0 0.00 0.14 0.01 78 1019.6
20220626134059 82 94 2.0 5.0 0.00 0.14 0.01 78 1019.6
20220626133559 83 105 2.0 5.0 0.00 0.14 0.01 78 1019.6
20220626133115 83 264 1.0 3.0 0.00 0.14 0.01 83 1019.6
20220626132556 82 166 1.0 3.0 0.00 0.14 0.01 82 1019.6
20220626132057 82 109 1.0 3.0 0.00 0.14 0.01 82 1019.6
20220626131613 81 147 0.0 5.0 0.00 0.14 0.01 85 1019.6
20220626131056 80 0 1.0 5.0 0.00 0.14 0.01 85 1019.7
20220626130600 80 125 0.0 2.0 0.00 0.14 0.01 86 1019.8
20220626130118 79 105 1.0 5.0 0.00 0.14 0.01 87 1019.8
20220626125559 79 0 2.0 5.0 0.00 0.14 0.01 88 1019.6
20220626125056 78 91 2.0 4.0 0.00 0.14 0.01 88 1019.6
20220626124616 78 128 0.0 2.0 0.00 0.14 0.01 88 1019.5
20220626124059 78 142 0.0 3.0 0.00 0.14 0.01 90 1019.5
20220626123601 77 134 0.0 3.0 0.00 0.14 0.01 91 1019.5
20220626123114 76 87 0.0 2.0 0.00 0.14 0.01 93 1019.4
20220626122559 75 108 1.0 2.0 0.00 0.14 0.01 94 1019.5
20220626122056 75 93 0.0 1.0 0.00 0.14 0.01 95 1019.6
20220626121623 74 0 0.0 1.0 0.00 0.14 0.01 95 1019.6
20220626121058 74 0 0.0 1.0 0.00 0.14 0.01 95 1019.5
20220626120601 73 0 0.0 1.0 0.00 0.14 0.01 96 1019.6
20220626120112 73 313 0.0 1.0 0.00 0.14 0.01 96 1019.5
20220626115557 72 0 0.0 1.0 0.00 0.14 0.01 96 1019.5
20220626115057 72 0 0.0 1.0 0.00 0.14 0.01 96 1019.4
20220626114621 72 0 0.0 1.0 0.00 0.14 0.01 96 1019.4
20220626114056 72 0 0.0 0.0 0.00 0.14 0.01 96 1019.4
20220626113559 71 0 0.0 0.0 0.00 0.14 0.01 96 1019.4
20220626113116 71 0 0.0 0.0 0.00 0.14 0.01 96 1019.4
20220626112557 71 0 0.0 0.0 0.00 0.14 0.01 95 1019.4
20220626112057 70 0 0.0 0.0 0.00 0.14 0.01 95 1019.4
20220626111624 70 0 0.0 0.0 0.00 0.14 0.01 95 1019.3
20220626111057 70 0 0.0 0.0 0.00 0.14 0.01 95 1019.3
20220626110558 70 0 0.0 0.0 0.00 0.14 0.01 95 1019.2
20220626110120 70 0 0.0 0.0 0.00 0.14 0.01 95 1019.2
20220626105556 70 0 0.0 0.0 0.00 0.14 0.01 95 1019.2
20220626105059 70 0 0.0 0.0 0.00 0.14 0.01 95 1019.1
20220626104610 70 340 0.0 0.0 0.00 0.14 0.01 95 1018.9
20220626104057 70 0 0.0 0.0 0.00 0.14 0.01 95 1018.9
20220626103556 70 0 0.0 0.0 0.00 0.14 0.01 95 1019.0
20220626103118 70 0 0.0 0.0 0.00 0.14 0.01 95 1018.9
20220626102556 70 0 0.0 0.0 0.00 0.14 0.01 95 1018.7
20220626102100 70 0 0.0 0.0 0.00 0.14 0.01 95 1018.6
20220626101615 70 0 0.0 0.0 0.00 0.14 0.01 95 1018.7
20220626101059 70 0 0.0 0.0 0.00 0.14 0.01 95 1018.6
20220626100558 70 0 0.0 0.0 0.00 0.14 0.01 95 1018.5
20220626100116 71 0 0.0 0.0 0.00 0.14 0.01 95 1018.5
20220626095559 70 0 0.0 0.0 0.00 0.14 0.01 95 1018.5
20220626095059 71 0 0.0 0.0 0.00 0.14 0.01 95 1018.3
20220626094611 70 0 0.0 0.0 0.00 0.14 0.01 95 1018.4
20220626094100 70 0 0.0 0.0 0.00 0.14 0.01 95 1018.3
20220626093600 71 0 0.0 0.0 0.00 0.14 0.01 95 1018.1
20220626093117 71 0 0.0 0.0 0.00 0.14 0.01 95 1018.2
20220626092601 71 339 0.0 0.0 0.00 0.14 0.01 95 1018.3
20220626092103 71 0 0.0 0.0 0.00 0.14 0.01 95 1018.2
20220626091607 71 0 0.0 0.0 0.00 0.14 0.01 95 1018.4
20220626091100 71 0 0.0 0.0 0.00 0.14 0.01 95 1018.3
20220626090559 71 0 0.0 0.0 0.00 0.14 0.01 95 1018.2
20220626090107 71 0 0.0 0.0 0.00 0.14 0.01 95 1018.3
20220626085559 71 0 0.0 0.0 0.00 0.14 0.01 95 1018.2
20220626085059 71 0 0.0 0.0 0.00 0.14 0.01 95 1018.1
20220626084611 71 0 0.0 0.0 0.00 0.14 0.01 95 1018.0
20220626084059 71 0 0.0 0.0 0.00 0.14 0.01 95 1017.9
20220626083600 71 0 0.0 0.0 0.00 0.14 0.01 95 1017.9
20220626083107 71 0 0.0 0.0 0.00 0.14 0.01 95 1017.9
20220626082559 71 0 0.0 0.0 0.00 0.14 0.01 95 1017.7
20220626082059 71 0 0.0 1.0 0.00 0.14 0.01 95 1017.6
20220626081614 71 339 0.0 1.0 0.00 0.14 0.01 95 1017.7
20220626081059 71 11 0.0 0.0 0.00 0.14 0.01 95 1017.5
20220626080559 71 0 0.0 1.0 0.00 0.14 0.01 95 1017.7
20220626080105 72 0 0.0 1.0 0.00 0.14 0.01 95 1017.7
20220626075601 72 0 0.0 0.0 0.00 0.14 0.01 95 1017.6
20220626075100 71 0 0.0 0.0 0.00 0.14 0.01 95 1017.6
20220626074617 72 0 0.0 0.0 0.00 0.14 0.01 95 1017.5
20220626074104 72 0 0.0 0.0 0.00 0.14 0.01 95 1017.6
20220626073558 72 0 0.0 0.0 0.00 0.14 0.01 95 1017.6
20220626073107 72 0 0.0 0.0 0.00 0.14 0.01 95 1017.7
20220626072603 72 0 0.0 1.0 0.00 0.14 0.01 95 1017.8
20220626072100 72 0 0.0 1.0 0.00 0.14 0.01 95 1017.7
20220626071614 72 0 0.0 1.0 0.01 0.14 0.01 94 1017.7
20220626071059 72 0 0.0 0.0 0.01 0.14 0.01 95 1017.5
20220626070603 72 0 0.0 0.0 0.01 0.14 0.01 95 1017.7
20220626070112 72 0 0.0 0.0 0.01 0.14 0.01 95 1017.7
20220626065559 72 0 0.0 0.0 0.01 0.14 0.01 95 1017.9
20220626065101 72 0 0.0 1.0 0.01 0.14 0.01 95 1017.9
20220626064617 72 0 0.0 1.0 0.01 0.14 0.01 95 1017.8
20220626064103 72 0 0.0 1.0 0.01 0.14 0.01 95 1017.9
20220626063558 72 31 0.0 0.0 0.01 0.14 0.01 95 1017.9
20220626063111 72 0 0.0 1.0 0.01 0.14 0.01 95 1017.9
20220626062601 72 0 0.0 1.0 0.01 0.14 0.01 94 1018.0
20220626062058 73 0 0.0 1.0 0.01 0.14 0.01 95 1018.0
20220626061629 73 0 0.0 0.0 0.00 0.13 0.00 95 1018.0
20220626061059 73 0 0.0 1.0 0.00 0.13 0.00 95 1018.0
20220626060558 73 38 0.0 1.0 0.00 0.13 0.00 95 1018.0
20220626060120 73 0 0.0 1.0 0.00 0.13 0.00 95 1018.0
20220626055603 73 0 0.0 1.0 0.00 0.13 0.00 95 1018.2
20220626055059 73 0 0.0 1.0 0.00 0.13 0.00 95 1018.1
20220626054608 73 9 0.0 0.0 0.00 0.13 0.00 95 1018.1
20220626054101 73 0 0.0 0.0 0.00 0.13 0.00 95 1018.2
20220626053601 73 0 0.0 0.0 0.00 0.13 0.00 95 1018.0
20220626053111 73 0 0.0 0.0 0.00 0.13 0.00 95 1018.1
20220626052559 73 0 0.0 0.0 0.00 0.13 0.00 94 1018.1
20220626052102 73 0 0.0 0.0 0.00 0.13 0.00 94 1018.1
20220626051620 73 352 0.0 0.0 0.00 0.13 0.00 94 1018.1
20220626051102 73 355 0.0 1.0 0.00 0.13 0.00 94 1018.1
20220626050558 73 0 0.0 1.0 0.00 0.13 0.00 94 1018.1
20220626050109 73 0 0.0 1.0 0.00 0.13 0.00 94 1018.3
20220626045603 73 0 0.0 1.0 0.00 0.13 0.13 94 1018.1
20220626045059 74 289 0.0 0.0 0.00 0.13 0.13 94 1018.2
20220626044618 74 0 0.0 1.0 0.00 0.13 0.13 94 1018.1
20220626044100 74 0 0.0 1.0 0.00 0.13 0.13 94 1018.2
20220626043600 74 0 0.0 1.0 0.00 0.13 0.13 94 1018.1
20220626043115 74 0 0.0 1.0 0.00 0.13 0.13 95 1018.0
20220626042558 74 0 0.0 1.0 0.00 0.13 0.13 94 1018.1
20220626042102 74 0 0.0 1.0 0.00 0.13 0.13 94 1018.0
20220626041617 74 0 0.0 1.0 0.00 0.13 0.13 94 1018.1
20220626041101 74 0 0.0 1.0 0.00 0.13 0.13 94 1018.2
20220626040603 74 315 0.0 1.0 0.00 0.13 0.13 94 1018.2
20220626040122 74 0 0.0 1.0 0.00 0.13 0.13 94 1018.4
20220626035558 74 0 0.0 1.0 0.00 0.13 0.13 94 1018.3
20220626035058 74 0 0.0 1.0 0.00 0.13 0.13 94 1018.3
20220626034615 74 0 0.0 1.0 0.00 0.13 0.13 94 1018.3
20220626034100 75 0 0.0 1.0 0.00 0.13 0.13 94 1018.3
20220626033559 75 0 0.0 1.0 0.00 0.13 0.13 94 1018.3
20220626033123 75 0 0.0 1.0 0.00 0.13 0.13 94 1018.2
20220626032601 74 0 0.0 1.0 0.00 0.13 0.13 94 1018.2
20220626032059 74 307 0.0 1.0 0.00 0.13 0.13 94 1018.3
20220626031611 75 0 0.0 1.0 0.00 0.13 0.13 94 1018.3
20220626031101 75 306 0.0 1.0 0.00 0.13 0.13 93 1018.4
20220626030601 75 313 0.0 1.0 0.00 0.13 0.13 93 1018.6
20220626030126 75 0 0.0 1.0 0.00 0.13 0.13 93 1018.4
20220626025559 75 0 0.0 2.0 0.00 0.13 0.13 92 1018.5
20220626025101 75 0 0.0 4.0 0.00 0.13 0.13 92 1018.4
20220626024613 75 88 0.0 4.0 0.00 0.13 0.13 93 1018.4
20220626024103 75 0 0.0 1.0 0.00 0.13 0.13 93 1018.4
20220626023558 75 356 0.0 1.0 0.00 0.13 0.13 93 1018.5
20220626023111 76 0 0.0 1.0 0.00 0.13 0.13 92 1018.5
20220626022558 76 359 0.0 1.0 0.00 0.13 0.13 92 1018.2
20220626022101 76 0 0.0 1.0 0.00 0.13 0.13 91 1018.1
20220626021629 76 161 0.0 3.0 0.00 0.13 0.13 91 1018.0
20220626021059 76 0 0.0 3.0 0.00 0.13 0.13 91 1018.0
20220626020600 76 103 0.0 2.0 0.00 0.13 0.13 92 1017.9
20220626020115 76 0 0.0 2.0 0.00 0.13 0.13 92 1017.9
20220626015601 76 0 0.0 3.0 0.00 0.13 0.13 92 1018.0
20220626015058 76 0 0.0 3.0 0.00 0.13 0.13 93 1017.9
20220626014621 76 128 0.0 1.0 0.00 0.13 0.13 93 1017.9
20220626014059 76 0 0.0 2.0 0.00 0.13 0.13 93 1017.7
20220626013600 76 0 0.0 2.0 0.01 0.13 0.13 93 1017.6
20220626013124 76 0 0.0 2.0 0.01 0.13 0.13 93 1017.5
20220626012558 76 112 0.0 2.0 0.02 0.13 0.13 93 1017.6
20220626012100 76 126 0.0 1.0 0.05 0.13 0.13 93 1017.6
20220626011622 76 0 0.0 1.0 0.07 0.13 0.13 93 1017.7
20220626011130 76 0 0.0 1.0 0.08 0.13 0.13 93 1017.7
20220626010600 76 26 0.0 2.0 0.08 0.13 0.13 93 1017.7
20220626010118 75 320 1.0 2.0 0.08 0.13 0.13 93 1017.7
20220626005559 75 299 1.0 2.0 0.12 0.13 0.13 93 1017.7
20220626005059 76 276 1.0 1.0 0.12 0.13 0.13 93 1017.5
20220626004623 76 0 0.0 2.0 0.13 0.13 0.13 93 1017.5
20220626004100 76 69 0.0 2.0 0.13 0.13 0.13 92 1017.4
20220626003600 76 84 0.0 1.0 0.12 0.12 0.12 92 1017.4
20220626003123 76 0 0.0 1.0 0.12 0.12 0.12 92 1017.2
20220626002603 76 0 0.0 2.0 0.11 0.11 0.11 91 1017.3
20220626002059 76 135 0.0 2.0 0.08 0.08 0.08 92 1017.4
20220626001621 76 0 0.0 1.0 0.06 0.06 0.06 91 1017.5
20220626001059 76 0 0.0 2.0 0.05 0.05 0.05 91 1017.5
20220626000558 76 139 1.0 2.0 0.05 0.05 0.05 91 1017.3
20220626000124 76 0 0.0 7.0 0.05 0.05 0.05 91 1017.7
20220625235600 76 0 1.0 10.0 0.01 0.01 0.01 91 1017.7
20220625235059 76 341 3.0 10.0 0.01 0.01 0.01 91 1017.6
20220625234618 76 292 4.0 8.0 0.00 0.00 0.00 90 1017.7
20220625234100 77 316 2.0 6.0 0.00 0.00 0.00 86 1017.6
20220625233557 78 279 1.0 7.0 0.00 0.00 0.00 83 1017.5
20220625233114 78 211 3.0 7.0 0.00 0.00 0.00 81 1017.3
20220625232557 78 244 3.0 6.0 0.00 0.00 0.00 80 1017.1
20220625232101 78 263 1.0 8.0 0.00 0.00 0.00 80 1017.3
20220625231609 79 287 3.0 8.0 0.00 0.00 0.00 79 1017.2
20220625231100 79 193 3.0 6.0 0.00 0.00 0.00 78 1016.9
20220625230558 79 344 1.0 10.0 0.00 0.00 0.00 78 1016.9
20220625230113 79 312 2.0 11.0 0.00 0.00 0.00 76 1017.1
20220625225559 81 308 6.0 11.0 0.00 0.00 0.00 74 1017.1
20220625225101 82 273 3.0 10.0 0.00 0.00 0.00 73 1016.9
20220625224612 84 213 3.0 10.0 0.00 0.00 0.00 72 1017.0
20220625224059 86 286 4.0 10.0 0.00 0.00 0.00 70 1016.6
20220625223559 87 256 1.0 3.0 0.00 0.00 0.00 73 1016.2
20220625223115 88 142 1.0 3.0 0.00 0.00 0.00 71 1015.9
20220625222558 88 69 1.0 5.0 0.00 0.00 0.00 70 1015.8
20220625222102 88 150 1.0 6.0 0.00 0.00 0.00 70 1015.7
20220625221618 89 123 2.0 6.0 0.00 0.00 0.00 70 1015.4
20220625221059 89 122 2.0 11.0 0.00 0.00 0.00 69 1015.4
20220625220559 90 94 4.0 11.0 0.00 0.00 0.00 67 1015.2
20220625220116 91 128 4.0 8.0 0.00 0.00 0.00 65 1015.1
20220625215600 92 53 3.0 9.0 0.00 0.00 0.00 63 1015.3
20220625215058 93 121 4.0 12.0 0.00 0.00 0.00 62 1015.2
20220625214611 93 117 6.0 12.0 0.00 0.00 0.00 62 1015.2
20220625214059 94 88 5.0 12.0 0.00 0.00 0.00 61 1015.1
20220625213600 95 150 3.0 9.0 0.00 0.00 0.00 59 1015.2
20220625213113 95 138 3.0 10.0 0.00 0.00 0.00 58 1015.2
20220625212559 95 88 5.0 10.0 0.00 0.00 0.00 57 1015.3
20220625212058 96 86 3.0 11.0 0.00 0.00 0.00 57 1015.3
20220625211611 95 114 5.0 11.0 0.00 0.00 0.00 58 1015.2
20220625211100 96 77 4.0 7.0 0.00 0.00 0.00 58 1015.2
20220625210559 96 88 4.0 7.0 0.00 0.00 0.00 57 1015.3
20220625210115 97 19 3.0 10.0 0.00 0.00 0.00 57 1015.2
20220625205602 96 131 4.0 10.0 0.00 0.00 0.00 57 1015.2
20220625205100 96 134 4.0 7.0 0.00 0.00 0.00 56 1015.2
20220625204614 95 79 3.0 7.0 0.00 0.00 0.00 56 1015.2
20220625204100 95 145 3.0 9.0 0.00 0.00 0.00 56 1014.9
20220625203558 95 90 5.0 9.0 0.00 0.00 0.00 57 1014.8
20220625203111 94 112 3.0 9.0 0.00 0.00 0.00 57 1014.6
20220625202558 94 138 4.0 9.0 0.00 0.00 0.00 58 1014.7
20220625202058 93 171 3.0 7.0 0.00 0.00 0.00 60 1014.8
20220625201623 93 120 3.0 9.0 0.00 0.00 0.00 58 1014.9
20220625201101 94 115 4.0 10.0 0.00 0.00 0.00 58 1014.9
20220625200559 93 109 3.0 10.0 0.00 0.00 0.00 62 1014.9
20220625200111 93 95 3.0 8.0 0.00 0.00 0.00 60 1015.0
20220625195604 94 135 2.0 8.0 0.00 0.00 0.00 58 1015.0
20220625195059 94 109 3.0 8.0 0.00 0.00 0.00 61 1015.1
20220625194609 93 107 2.0 7.0 0.00 0.00 0.00 61 1015.1
20220625194058 93 102 3.0 8.0 0.00 0.00 0.00 60 1015.3
20220625193600 94 126 4.0 13.0 0.00 0.00 0.00 59 1015.3
20220625193106 95 94 5.0 13.0 0.00 0.00 0.00 59 1015.3
20220625192558 94 244 1.0 8.0 0.00 0.00 0.00 62 1015.2
20220625192059 94 100 4.0 9.0 0.00 0.00 0.00 62 1015.4
20220625191609 94 100 5.0 9.0 0.00 0.00 0.00 61 1015.5
20220625191059 94 120 4.0 9.0 0.00 0.00 0.00 59 1015.5
20220625190600 94 111 2.0 9.0 0.00 0.00 0.00 63 1015.6
20220625190107 93 107 3.0 7.0 0.00 0.00 0.00 62 1015.7
20220625185558 94 88 4.0 7.0 0.00 0.00 0.00 61 1015.8
20220625185058 95 19 2.0 7.0 0.00 0.00 0.00 61 1015.7
20220625184606 95 264 1.0 7.0 0.00 0.00 0.00 62 1015.8
20220625184101 95 111 2.0 7.0 0.00 0.00 0.00 60 1015.9
20220625183558 95 161 3.0 7.0 0.00 0.00 0.00 63 1015.9
20220625183111 95 137 2.0 7.0 0.00 0.00 0.00 61 1016.0
20220625182601 94 138 2.0 6.0 0.00 0.00 0.00 63 1016.1
20220625182102 94 137 1.0 7.0 0.00 0.00 0.00 64 1016.2
20220625181607 93 102 3.0 10.0 0.00 0.00 0.00 66 1016.2
20220625181057 94 142 3.0 10.0 0.00 0.00 0.00 63 1016.4
20220625180558 94 173 2.0 7.0 0.00 0.00 0.00 65 1016.4
20220625180111 93 98 3.0 6.0 0.00 0.00 0.00 63 1016.6
20220625175600 93 57 3.0 5.0 0.00 0.00 0.00 66 1016.6
20220625175101 92 50 2.0 5.0 0.00 0.00 0.00 67 1016.6
20220625174614 92 114 3.0 10.0 0.00 0.00 0.00 66 1016.7
20220625174103 92 126 3.0 10.0 0.00 0.00 0.00 66 1016.7
20220625173602 92 145 2.0 7.0 0.00 0.00 0.00 64 1016.8
20220625173108 92 90 4.0 7.0 0.00 0.00 0.00 66 1016.8